Location: Dob?e?
(49.9411°N, 15.1496°E)
Time: 16:53:09
(UTC+00:00)

X-37B - Pass Details

Date: 05 August 2021
Orbit: 381 x 393 km, 45.0° (Epoch: 29 August)

Event Time Altitude Azimuth Distance (km) Brightness Sun altitude
Exits shadow 02:52:46 - 236° (WSW) 1,483 2.8 -6.5°
Reaches altitude 10° 02:53:00 10° 234° (SW) 1,396 2.7 -6.5°
Maximum altitude 02:55:47 30° 172° (S) 717 1.7 -6.2°
Drops below altitude 10° 02:58:36 10° 108° (ESE) 1,399 4.0 -5.8°
Sets 03:00:48 0° 97° (E) 2,253 5.3 -5.5°
